Reflectivity
-20 -20 -20 -20 -20 -20 -20 -20 -20 -20 -6 -20 -20 -20 -20 -20 -20 -20 -20 -20 -14 -20 -20 -20 -20 -20 -20 -20 -20 -20 -20 -20 -20 -20 -20 -12 -20 -20 -20 -20 -14 -14 -20 -20
-20 -20 -20 -20 -20 -20 -20 -20 -20 -14 16 -20 -20 -20 -20 -20 -20 -20 -20 -20 -20 -20 -20 -20 -20 -20 -20 -20 -20 -20 -20 -20 -20 -20 -20 -20 -20 -20 -20 -20 2 6 -13 -20
-20 -20 -20 -20 -20 -20 -20 -20 -20 -20 -20 -20 -20 -20 -20 -20 -20 -20 -20 -20 -20 -20 -20 -20 -20 -20 -20 -20 -20 -20 -20 -20 -20 -20 -20 -20 -18 -20 -20 -20 -20 -20 -20 -10
-20 -20 -20 -20 -20 -20 -20 -20 -20 -20 -20 -20 -20 -20 -20 -20 -20 -20 -20 -20 -20 -20 -20 -20 -20 -20 -20 -20 -20 -20 -20 -20 -20 -20 -20 -20 -20 -20 -20 -20 -20 -20 -20 29
-20 -20 -20 -20 -20 -20 -20 -20 -20 -20 -20 -20 -20 -20 -16 -20 23 -20 -20 -20 -20 -20 -20 -20 -20 -20 -20 -20 -20 -20 -20 -20 -20 -20 -20 -20 -20 -20 -20 -20 -20 -15 -20 -20
-20 -20 -20 -20 -20 -20 -20 -20 -20 -20 -20 -20 -20 -20 -20 7 11 6 -20 -20 -20 -20 -20 -20 -20 -20 -20 -20 -20 -20 -20 -20 -20 -20 -20 -20 -20 -20 -20 -20 -20 -20 -20 -20
-20 -20 -20 -20 -20 -20 -20 -20 -20 -20 -20 -20 -20 -20 -20 -19 -15 -20 -20 -20 -20 -20 -20 -20 -20 -20 -20 -20 -20 -20 -20 -20 -20 -20 -20 -20 -20 -20 -20 -20 -20 -20 -10 26
-20 -20 -20 -20 -20 -20 -20 -20 -20 -20 -20 -20 -20 -20 -20 -9 -19 -20 -20 -20 -20 -20 -20 -20 -20 -20 -20 -20 -20 -20 -20 -20 -20 -20 -20 -20 -20 -20 -20 -20 -20 -20 -20 -1
-20 -20 -20 -20 -20 -20 -20 -20 -20 -20 -20 -20 -20 -14 -19 -12 -10 -20 -20 -20 -20 -20 -20 -20 -20 -20 -20 -20 -20 -20 -20 -20 -20 -20 -20 -20 -20 -20 -20 -20 -20 -20 -20 -20
-20 -20 -16 -20 -20 -20 -20 -20 -20 -20 -11 -20 -20 -20 -11 10 15 -18 -20 -20 -20 -20 -20 -20 -20 -20 -2 -14 -2 -0 -18 -20 -18 -20 -20 -20 -20 -20 -20 -20 -20 -20 -20 -20
-20 -20 -20 -20 -20 -20 -20 -20 -20 -2 -13 -14 -20 -6 -3 -9 -20 -18 -20 -20 -20 -20 -20 -20 -20 -13 -19 -20 5 21 -3 22 30 33 1 -15 -20 -20 1 -11 -20 -3 -20 -20
-20 -20 -20 -20 -20 -17 -20 -20 -20 -20 -20 -20 -20 -20 -20 -20 -20 -19 -14 -20 -20 -20 -20 -20 -20 -20 20 -20 -20 -20 -20 -5 27 -9 -3 -20 24 -0 32 34 10 -20 -20 -16
-20 -13 -20 -20 -20 -20 -20 -20 -20 -20 -20 -20 -20 -20 -3 -14 -20 6 -20 -20 -20 -20 -20 -20 -20 -20 -20 -20 -20 12 -17 -15 22 -13 -4 18 32 43 24 9 -8 -20 -20 -20
5 -6 -20 -20 -20 -20 -20 -20 -20 -20 -20 -20 -20 -20 -19 -20 13 -20 -20 -20 -20 -20 -20 -20 -20 -20 -20 -20 -20 -20 -20 5 -16 -3 13 4 12 14 -9 -12 5 -4 -18 9
-0 15 -17 -20 -20 -1 -16 -20 -20 -20 -20 -20 -20 -20 -20 -20 -20 -20 -20 -20 -20 -15 -20 -20 -20 -20 -20 -20 -20 -20 -20 -20 -16 -7 -20 -20 -20 -20 -20 -20 -20 -20 -20 -14
-3 -16 -20 -20 -20 -13 -14 -20 -20 -20 -20 -20 -20 -20 -20 -20 -8 -20 -19 4 -20 3 -8 -20 -20 -20 -20 -20 -20 -20 -20 -20 -20 -20 -20 -20 -20 -20 -20 -20 -20 -20 -17 4
-3 -20 -20 -20 -20 -20 -7 -20 -20 -20 -20 -20 -20 -20 -20 -20 -20 -4 -20 -20 -20 -20 -7 -20 -20 -20 -20 -20 -20 -20 -20 -20 -20 -20 -20 -20 -20 -20 -20 -20 -20 -20 0 4
25 -20 -20 -20 -20 15 10 -12 -20 -20 -20 -18 2 -20 -20 -20 -20 -20 -20 -20 -20 -20 -20 -20 -20 -20 -20 -20 -20 -20 -20 -20 -20 -20 -20 -20 -20 -20 -20 -20 -20 -20 -20 -15
15 17 8 -5 -6 -17 -13 -20 -20 -20 -20 -20 -20 -20 -20 -20 -20 -20 -20 -20 -20 -18 -20 -20 -20 -20 -20 -20 -20 16 -20 -20 -20 -20 -20 -20 -12 -20 -20 -20 -20 -20 -20 -20
4 38 42 13 7 -14 -20 -20 -20 -20 -20 -20 -20 -20 -20 -20 -20 -20 -20 -20 -19 -20 -20 -20 -20 -20 -20 -20 -20 -20 -20 -6 -20 17 -20 -20 -20 -20 -20 -20 -20 -20 -20 -20
5 27 30 -20 -3 -20 -20 -20 -10 8 -3 -9 9 -20 -20 -20 -20 -20 -20 -20 -20 -20 -20 -20 -20 -20 -20 -20 -20 -20 -20 -20 -20 -20 -20 -20 -20 -20 -20 -20 -20 -20 -20 -20
-1 10 23 29 -20 -2 -20 -20 -1 3 -14 9 15 -20 -17 -20 -20 -20 -20 -20 -20 -20 -20 -20 -20 -20 -20 -20 -20 -20 -20 -20 -20 -20 -20 -20 -20 -20 -20 -20 -20 -20 -20 -20
12 -19 9 14 29 -20 -17 9 -20 4 -19 -20 -20 -20 -20 -20 -17 -20 -20 -20 -20 -20 -20 -20 -20 -20 -20 -20 -20 -20 -20 -20 -20 -20 -20 -20 -20 -20 -20 -20 -20 -20 -20 -20
-20 -19 3 -8 3 5 -20 -9 4 -20 3 3 28 -17 15 -6 -20 -20 -20 -20 -20 -20 -20 -20 -20 -20 -20 -20 -20 -20 -20 -20 -20 -20 -20 -20 -20 -20 -20 -20 -20 -20 -20 -20
-20 -20 -14 -3 -5 15 1 -20 -20 5 -5 5 -11 -15 12 -20 -20 -20 -20 -20 -20 -20 -20 -20 -20 -20 -20 -20 -20 -20 -20 -20 -20 -20 -20 -20 -20 -20 -20 -20 -20 -20 -20 -20
-20 -20 -10 -20 -13 12 4 -20 -3 4 30 30 -0 -4 -20 -20 -20 -20 -20 -20 -20 -20 -20 -20 -20 -20 -20 -20 -20 -20 -20 -20 -20 -20 -20 -20 -20 -20 -20 -20 -20 -20 -20 -17
Wind_Speed
6 4 10 12 13 16 14 13 8 6 9 7 12 7 12 7 1 15 13 10 15 15 16 16 16 15 13 10 13 12 11 13 11 8 8 9 10 8 6 6 7 7 5 5
8 15 13 16 17 15 13 10 7 8 2 3 6 16 10 9 7 10 15 12 9 13 17 16 17 16 16 15 13 13 15 15 11 9 10 7 9 10 10 6 7 7 7 6
13 11 19 19 18 14 14 5 6 3 5 7 6 0 10 11 11 13 15 16 14 17 20 19 19 17 17 17 17 18 18 19 14 15 9 8 5 3 4 5 5 8 11 10
12 17 20 20 16 9 6 8 5 4 2 4 2 5 12 19 19 19 18 17 18 17 18 20 21 19 19 19 18 21 20 19 17 17 12 11 7 9 7 6 7 8 10 9
16 7 14 16 11 6 10 6 4 2 6 4 8 3 10 17 15 20 19 19 20 22 23 23 23 23 20 19 19 18 18 18 18 17 14 11 11 9 6 6 8 8 7 8
15 13 15 15 10 8 7 3 2 3 1 4 7 1 6 12 9 16 19 20 20 22 24 24 24 23 23 20 19 18 19 18 18 18 18 14 9 10 7 7 8 5 4 4
16 19 18 9 6 5 6 3 1 3 4 7 9 3 8 9 10 22 20 20 21 21 26 24 24 22 21 24 24 21 22 21 19 19 18 18 16 16 14 13 9 8 6 4
13 14 16 10 12 10 9 8 7 4 3 4 7 4 7 12 8 6 10 22 19 20 21 26 27 25 25 26 25 25 24 23 22 22 22 18 19 11 9 11 8 8 8 9
9 19 8 16 6 8 5 5 8 8 2 3 4 9 9 13 6 6 7 9 15 16 17 22 27 26 24 24 26 25 24 24 22 19 20 19 16 11 11 8 7 7 6 5
5 6 16 17 9 9 10 4 3 2 5 2 6 6 7 1 6 2 6 7 4 8 17 15 16 23 20 21 21 20 22 26 27 23 19 17 17 11 9 8 8 8 7 7
17 13 10 2 4 6 4 7 4 7 6 5 2 5 7 7 3 3 7 9 8 6 8 9 9 12 11 11 17 22 20 15 16 16 17 17 14 12 9 9 7 8 7 8
16 5 12 18 5 8 12 11 9 6 5 3 6 7 3 8 6 6 9 7 8 7 6 9 9 9 11 15 20 21 23 22 19 17 14 15 9 7 6 6 10 10 10 9
9 14 9 8 8 5 10 7 6 5 5 8 7 7 6 3 8 9 9 1 5 8 8 7 8 9 8 9 23 26 24 23 19 14 12 10 12 13 16 12 10 10 10 10
16 10 14 18 5 6 8 9 13 12 5 6 7 5 2 8 6 8 4 4 5 7 9 8 7 7 6 6 6 11 14 14 15 15 14 11 12 11 8 7 8 9 10 9
6 11 11 15 13 13 11 16 15 14 15 11 6 8 8 11 11 6 6 1 3 5 6 8 8 7 7 7 8 9 6 9 10 12 10 10 10 10 9 9 9 9 8 7
10 6 7 5 9 16 18 15 19 15 5 10 12 13 14 15 7 9 13 9 9 9 9 8 8 8 8 8 9 10 9 9 9 11 13 12 13 12 10 9 8 8 7 7
7 8 2 14 5 6 16 18 13 6 11 11 11 12 9 6 10 11 11 15 12 9 8 9 10 12 11 10 13 11 8 10 12 12 11 12 11 11 10 10 10 9 8 7
10 8 4 5 6 11 10 11 10 8 11 10 3 3 6 6 9 11 9 11 7 8 8 8 9 8 8 10 13 13 10 12 12 11 11 12 12 12 11 11 10 9 7 8
8 3 6 6 12 4 8 5 7 8 11 6 5 7 7 9 4 0 7 4 8 9 8 7 7 9 9 11 10 12 13 11 12 11 12 12 12 12 11 11 10 8 9 7
10 4 10 2 7 17 3 11 8 4 11 4 5 6 9 3 3 6 6 9 9 9 9 10 9 10 12 7 10 12 9 11 10 9 11 11 11 13 12 11 10 7 7 7
5 7 5 3 3 7 6 6 6 9 3 8 6 4 4 4 7 6 9 6 8 9 12 9 10 11 9 10 12 11 9 8 9 11 11 10 11 12 10 9 8 8 8 9
7 8 3 3 3 6 12 8 4 8 12 12 11 5 2 7 8 9 8 12 11 12 12 11 11 9 7 10 12 11 11 9 9 10 12 12 11 9 8 8 7 7 7 7
5 8 9 9 7 7 4 6 2 4 11 13 4 10 8 9 8 10 10 11 11 12 10 9 11 9 7 9 12 13 8 12 13 13 12 11 10 9 7 6 6 5 7 6
6 6 5 6 7 9 9 3 10 13 12 13 10 1 3 7 8 7 9 9 9 8 8 7 10 9 7 9 10 11 12 12 13 12 10 7 7 8 8 8 7 7 5 5
5 8 6 3 3 4 6 5 4 16 21 18 8 6 4 8 8 7 6 7 7 9 7 9 8 7 7 10 11 11 10 10 9 8 7 7 8 10 9 8 6 7 5 5
3 5 5 6 9 7 7 15 14 9 4 17 8 9 6 2 9 7 7 7 8 9 9 11 9 13 10 10 8 6 7 9 9 9 6 5 7 6 7 8 8 14 13 15
Wind_Direction
216 191 235 235 229 237 258 274 282 192 239 179 198 189 206 214 105 179 187 171 178 171 160 163 162 166 160 165 151 158 157 157 150 159 175 171 186 208 231 218 200 201 227 231
238 226 228 239 252 253 262 268 295 42 223 186 204 213 204 211 216 188 165 169 174 158 160 167 168 173 166 169 161 165 169 174 175 177 178 187 199 209 207 196 196 196 202 214
211 230 219 238 251 254 273 243 286 238 207 256 287 332 180 231 216 189 171 177 177 165 168 173 174 176 168 173 171 176 180 183 184 191 202 212 180 185 192 204 204 205 196 204
238 231 247 257 247 216 277 268 286 322 2 254 142 286 183 196 204 196 185 183 186 185 175 174 174 178 180 180 182 181 187 192 199 204 204 203 194 201 205 193 196 205 205 205
234 253 235 250 246 236 244 220 229 282 315 344 299 75 294 176 191 195 192 193 194 186 183 182 183 179 182 182 185 191 190 196 196 200 204 199 205 196 189 186 186 202 201 172
251 234 244 241 244 218 252 178 259 300 221 312 268 216 259 184 194 195 187 193 185 183 185 187 186 180 181 182 187 192 195 199 200 202 210 207 200 207 186 181 178 176 181 156
251 255 252 255 231 226 256 137 314 336 346 236 346 356 247 214 203 188 198 191 191 178 183 187 186 187 187 186 189 192 198 206 208 205 210 206 205 206 195 193 182 163 165 182
228 253 237 235 206 199 227 163 152 216 208 314 359 267 276 204 210 247 194 197 189 190 183 186 189 188 190 193 190 193 197 203 203 205 210 212 212 217 187 197 190 177 176 198
204 240 262 235 226 169 249 183 169 107 45 52 257 273 307 251 221 137 130 136 193 196 191 187 190 192 190 195 197 195 196 204 206 200 205 211 211 199 190 176 171 176 162 160
252 251 237 254 217 222 189 168 132 76 122 225 252 257 266 325 320 9 148 182 214 164 206 199 179 186 190 200 201 199 204 203 205 206 201 207 207 180 164 153 163 165 148 150
212 236 284 176 191 207 188 223 223 148 168 192 206 240 206 193 221 313 263 158 164 145 132 184 185 178 161 168 166 195 204 202 221 230 208 197 193 165 159 156 163 171 149 155
204 184 227 252 252 244 235 198 183 145 246 195 154 252 157 183 248 242 272 198 166 159 166 137 165 171 187 195 193 208 197 203 208 208 208 193 168 136 128 187 171 159 161 166
204 223 244 267 245 280 227 213 203 211 154 211 161 251 233 218 237 242 227 342 218 163 149 156 146 159 169 171 191 203 201 200 202 188 173 158 149 166 191 187 158 152 151 165
215 200 214 225 183 183 253 248 232 224 162 220 202 219 278 260 214 230 112 12 31 266 179 175 160 165 161 129 107 164 187 179 176 169 181 163 172 172 161 142 139 144 153 154
298 219 233 218 196 226 217 226 232 235 225 206 224 210 239 229 243 201 120 6 305 227 218 179 175 172 158 130 102 107 113 160 153 157 135 129 116 114 112 116 123 129 123 130
326 283 186 244 199 219 250 269 233 246 223 227 229 241 241 246 181 185 175 197 217 203 198 178 152 142 131 120 108 104 110 92 113 119 124 123 119 122 120 116 118 106 107 117
314 344 174 224 210 249 266 238 254 235 253 247 212 222 235 224 188 194 212 214 198 183 175 161 157 157 154 137 127 117 112 111 110 112 118 123 125 120 119 117 113 117 118 116
302 347 260 211 119 215 254 196 233 239 244 259 258 240 258 250 246 210 203 202 193 166 161 145 136 128 132 127 123 127 119 115 118 119 118 116 118 118 114 113 112 111 114 116
137 346 295 191 204 281 272 221 175 201 256 236 252 273 270 268 256 53 137 130 157 153 146 134 120 122 114 121 123 120 125 124 121 123 125 126 126 118 118 117 117 115 115 117
125 169 273 353 181 227 98 246 277 318 262 247 246 271 246 259 175 231 197 136 126 120 131 127 119 116 117 116 112 112 114 116 119 123 122 121 120 123 125 129 130 132 131 132
139 120 273 6 299 299 299 191 174 239 279 281 249 211 281 193 203 182 146 102 128 137 134 119 122 129 129 119 115 109 108 113 115 113 116 112 116 119 121 120 121 128 129 129
156 134 173 233 271 273 19 359 171 332 320 286 255 261 255 173 147 156 138 142 144 138 136 129 128 130 126 120 119 118 116 121 111 105 108 116 118 126 127 133 137 137 125 123
207 183 166 168 215 253 250 238 238 286 318 309 345 338 290 168 164 163 158 153 149 144 136 127 130 124 120 117 126 126 134 121 119 119 125 131 136 142 148 140 133 109 117 121
237 168 154 144 221 231 273 332 353 342 329 311 312 10 322 178 165 167 155 145 142 135 131 116 122 125 119 122 122 122 121 124 127 131 137 135 130 113 92 93 94 103 105 101
216 159 171 269 282 208 150 117 343 337 318 302 304 294 270 161 177 168 154 141 129 130 112 117 111 105 94 107 110 118 125 125 121 113 111 108 95 98 90 78 87 94 56 91
224 187 158 219 213 160 174 184 184 197 247 282 304 308 306 106 173 146 138 136 130 127 120 117 109 103 104 97 96 99 102 108 107 103 87 85 104 99 95 98 83 72 90 92